Regional Weather Roundup
Issued by NWS

Home | Current Version | Previous Version | Graphics & Text | Print | Product List | Glossary On
Versions: 1 2 3 4 5 6 7 8 9 10 11 12 13 14 15 16 17 18 19 20 21 22 23 24 25 26 27
000
ASUS45 KCYS 051910
RWRWY

WYOMING REGIONAL WEATHER ROUNDUP
NATIONAL WEATHER SERVICE CHEYENNE WY
100 PM MDT THU MAY 05 2016

NOTE:  "FAIR" INDICATES FEW OR NO CLOUDS BELOW 12,000 FEET
WITH NO SIGNIFICANT WEATHER AND/OR OBSTRUCTIONS TO VISIBILITY.

WYZ001-052000-
YELLOWSTONE NATIONAL PARK

CITY           SKY/WX    TMP DP  RH WIND       PRES   REMARKS
LK YELLOWSTONE   N/A     57  27  31 E5        30.18F
W YELLOWSTONE  NOT AVBL

$$
WYZ002>013-054>058-071-098>099-052000-
NORTHERN WYOMING

CITY           SKY/WX    TMP DP  RH WIND       PRES   REMARKS
JACKSON        SUNNY     66  32  28 S5        30.09F
CODY           FAIR      75  34  22 CALM      30.00F
GREYBULL       FAIR      78  30  17 VRB6      29.95F
WORLAND        FAIR      75  36  24 CALM      29.97F
SHERIDAN       FAIR      81  40  23 CALM      29.93F
BUFFALO        FAIR      76  35  22 VRB3      30.00F
GILLETTE       FAIR      79  41  25 VRB5      29.96S
HULETT         FAIR      81  32  17 W8        29.96F
NEWCASTLE      FAIR      81  30  16 S10       29.98F

$$
WYZ014>020-022>026-101>103-052000-
CENTRAL WYOMING

CITY           SKY/WX    TMP DP  RH WIND       PRES   REMARKS
BIG PINEY      FAIR      70  30  22 S8        30.15F
PINEDALE       FAIR      68  27  21 S7        30.16S
DUBOIS         MOCLDY    66  27  22 E9        30.13S
LANDER         FAIR      73  38  27 SE5       30.04F
RIVERTON       FAIR      73  35  25 E6        30.06F
CASPER         FAIR      76  35  22 SW7       30.04F
DOUGLAS        FAIR      76  38  25 SW5       30.03F

$$
WYZ021-027>030-104>119-052000-
SOUTHERN WYOMING

CITY           SKY/WX    TMP DP  RH WIND       PRES   REMARKS
EVANSTON       FAIR      71  24  17 S14G22    30.10F
KEMMERER         N/A     70  25  18 S7        30.15F
FORT BRIDGER   CLEAR     72  23  16 CALM      30.14F
ROCK SPRINGS   PTSUNNY   71  23  16 S14G21    30.13F
DIXON          FAIR      73  27  18 W5        30.17F
RAWLINS        FAIR      71  23  16 W8G20     30.16F
SARATOGA       FAIR      72  23  16 NW12      30.17F
LARAMIE        FAIR      68  29  23 MISG      30.18F
CHEYENNE       FAIR      73  26  17 VRB5      30.12F
TORRINGTON     FAIR      80  38  22 W7        29.99F
PINE BLUFFS    FAIR      73  32  21 SW5       30.08F

$$




USA.gov is the U.S. government's official web portal to all federal, state and local government web resources and services.